User: anonymous   Login
Location: Unspecified
(0.0000°N, 0.0000°E)
Time: 04:08:01
(UTC+00:00)
Language:

Kosmos-2184 - Orbit

View from above orbital plane
View from above orbital plane
View from above satellite
View from above satellite

Ground track
Ground track

The orbit data is extracted from the following two-line orbital elements,

1 21937U 92020A   18343.58211696  .00000018  00000-0  30854-5 0  9996
2 21937  82.9313 346.6336 0032273 228.6098 251.6983 13.73155794335610
Epoch (UTC): 09 December 2018 13:58:14
Eccentricity: 0.0032273
inclination: 82.9313°
perigee height: 964 km
apogee height: 1012 km
right ascension of ascending node: 346.6336°
argument of perigee: 228.6098°
revolutions per day: 13.73155794
mean anomaly at epoch: 251.6983°
orbit number at epoch: 33561

The dashed part of the orbit path shows where the satellite is in the earth's shadow,  

DLR